STARLINK-32356 (60921 NORAD) Tracking and Keplerian Element Data

This shows tracking and keplerian element data for the satellite.

Feedback or suggestion? Click here.




ElementValue
Catalog60921
NameSTARLINK-32356
Epoch Orbit782
Epoch Day286.82026134
Epoch Year2024
RAAN145.9664
Inclination53.1621
Eccentricity8.58E-05
Argument of Perigee66.6588
Mean Anonmoly293.4503
Mean Motion15.30216559
Decay Rate-3.425E-05
L11 60921U 24154U 24286.82026134 -.00003425 00000+0 -10351-3 0 9990
L22 60921 53.1621 145.9664 0000858 66.6588 293.4503 15.30216559 7823



Live tracking and technical data element details for STARLINK-32356 (NORAD 60921). STARLINK-32356 can be tracked NOW for your location showing map with azimuth and elevation plus other details from your city location.







IsCatalogInMostPopularTable: catalog: 60921, numindb: 8
Update: records affected: 1



GetName: 60921 STARLINK-32356

Hit Count: updated at: Fri, 06 Dec 2024 11:15:35 GMT